Home > Time Zones > World Clock > Weather > Italy > Rome > Past weeks

Flag for Italy Weather past 2 weeks in Rome, Italy

Now
73 °F

Passing clouds.


Feels Like: 73 °F
Forecast: 70 / 92 °F
Wind: 5 mph from Southeast

Location: Rome / Ciampino

Current Time: Jul 30, 2015 at 2:11:46 AM

Latest Report: Jul 30, 2015 at 1:20 AM


Visibility: N/A

Pressure: 29.86 "Hg

Humidity: 83%

Dew point: 68 °F

Location of RomeLocation

Historic Weather in Rome — Graph

°F

Rome temperature yesterday

Maximum temperature yesterday: 90 °F (at 1:50 PM)
Minimum temperature yesterday: 66 °F (at 3:50 AM)
Average temperature yesterday: 79 °F

Past Weeks' High & Low Weather Summary

 TemperatureHumidityPressure
High97 °F (Jul 16, 12:50 PM)89% (Jul 21, 3:50 AM)30.09 "Hg (Jul 21, 3:50 AM)
Low66 °F (Jul 29, 3:50 AM)22% (Jul 18, 1:50 PM)29.77 "Hg (Jul 23, 3:20 PM)
Average83 °F55%29.92 "Hg
* Reported Jul 15 12:20 AM — Jul 30 12:50 AM, Rome, Weather by CustomWeather, © 2015

Note: Actual official high and low records may vary slightly from our data, if they occured in-between our weather recording intervals... More about our weather records

Advertising

Rome weather history for previous 24 hours

 ConditionsComfort  
Time TempWeatherWind HumidityBarometerVisibility
12:50 AM
Thu, Jul 30
73 °FClear.3 mph83%29.86 "Hg10 mi
12:20 AM73 °FClear.5 mph83%29.86 "Hg10 mi
11:50 PM
Wed, Jul 29
75 °FClear.5 mph83%29.86 "Hg10 mi
11:20 PM75 °FPassing clouds.5 mph83%29.86 "HgN/A
10:50 PM75 °FPassing clouds.3 mph78%29.86 "HgN/A
10:20 PM77 °FPassing clouds.3 mph74%29.86 "HgN/A
9:50 PM77 °FPassing clouds.3 mph69%29.86 "HgN/A
9:20 PM77 °FPassing clouds.5 mph65%29.86 "HgN/A
8:50 PM77 °FSunny.5 mph69%29.83 "Hg10 mi
8:20 PM79 °FPassing clouds.7 mph65%29.83 "HgN/A
7:50 PM79 °FPassing clouds.7 mph70%29.83 "HgN/A
7:20 PM82 °FPassing clouds.7 mph62%29.83 "HgN/A
6:50 PM84 °FPassing clouds.7 mph55%29.83 "HgN/A
6:20 PM86 °FPassing clouds.7 mph49%29.83 "HgN/A
5:50 PM84 °FPassing clouds.8 mph48%29.83 "HgN/A
5:20 PM86 °FPassing clouds.8 mph49%29.83 "HgN/A
4:50 PM86 °FSunny.8 mph52%29.83 "Hg10 mi
4:20 PM86 °FPassing clouds.9 mph55%29.83 "HgN/A
3:50 PM86 °FPassing clouds.10 mph55%29.83 "HgN/A
3:20 PM88 °FPassing clouds.10 mph52%29.83 "HgN/A
2:50 PM90 °FPassing clouds.10 mph49%29.83 "HgN/A
2:20 PM90 °FPassing clouds.10 mph46%29.83 "HgN/A
1:50 PM90 °FSunny.6 mph38%29.83 "Hg10 mi
12:50 PM88 °FSunny.5 mph40%29.83 "Hg10 mi
12:20 PM86 °FSunny.6 mph43%29.83 "Hg10 mi
11:50 AM86 °FSunny.6 mph46%29.86 "Hg10 mi
11:20 AM84 °FPassing clouds.6 mph48%29.86 "HgN/A
10:50 AM82 °FSunny.6 mph55%29.86 "Hg10 mi
10:20 AM82 °FSunny.3 mph48%29.86 "Hg10 mi
9:50 AM81 °FSunny.3 mph54%29.86 "Hg10 mi
9:20 AM79 °FPassing clouds.3 mph54%29.86 "HgN/A
8:50 AM77 °FSunny.6 mph61%29.83 "Hg10 mi
8:20 AM75 °FSunny.3 mph57%29.83 "Hg10 mi
7:50 AM73 °FSunny.2 mph50%29.83 "Hg10 mi
7:20 AM72 °FSunny.5 mph50%29.83 "Hg10 mi
6:50 AM68 °FClear.3 mph56%29.83 "Hg10 mi
5:50 AM68 °FClear.5 mph56%29.83 "Hg10 mi
4:50 AM66 °FClear.5 mph60%29.83 "Hg10 mi
3:50 AM66 °FClear.5 mph68%29.83 "Hg10 mi
3:20 AM68 °FClear.5 mph64%29.83 "Hg10 mi
Weather by CustomWeather, © 2015

See weather overviewHow to use our weather pages